Regional Weather Roundup
Issued by NWS

Home | Current Version | Previous Version | Graphics & Text | Print | Product List | Glossary On
Versions: 1 2 3 4 5 6 7 8 9 10 11 12 13 14 15 16 17 18 19 20 21 22 23 24 25 26 27 28 29 30 31 32 33 34 35 36 37 38 39 40 41 42 43 44 45 46 47 48 49 50
297
ASUS43 KOAX 281902
RWRNE

WEATHER ROUNDUP FOR NEBRASKA
NATIONAL WEATHER SERVICE OMAHA NE
200 PM CDT FRI APR 28 2017

NOTES: SATELLITE DATA IS BEING USED TO AUGMENT CLOUD COVER ABOVE
       12000 FEET.
       "FAIR" INDICATES FEW OR NO CLOUDS BELOW 12,000 FEET WITH NO
       SIGNIFICANT WEATHER AND/OR OBSTRUCTIONS TO VISIBILITY.

  * THESE STATIONS DO NOT REPORT WEATHER SUCH AS RAIN...SNOW OR FOG.

NEZ001>004-019>022-054>056-282000-
NEBRASKA PANHANDLE

CITY           SKY/WX    TMP DP  RH WIND       PRES   REMARKS
SCOTTSBLUFF    SNOW      34  32  92 E17       29.85R VSB 1/2 WCI  23
ALLIANCE       LGT SNOW  33  31  92 E22       29.86R VSB 3/4 WCI  21
CHADRON        LGT RAIN  37  33  85 E14       29.93R FOG     WCI  28
KIMBALL        LGT SNOW  35  33  94 E17       29.79R WCI  24
SIDNEY         LGT SNOW  34  32  92 E21G29    29.81R FOG     WCI  22
$$

NEZ057>060-069>072-079>082-282000-
SOUTHWEST NEBRASKA

CITY           SKY/WX    TMP DP  RH WIND       PRES   REMARKS
NORTH PLATTE   LGT SNOW  37  34  89 NE18G31   29.85R FOG     WCI  27
IMPERIAL       CLOUDY    38  35  89 NE22      29.79S WCI  27
LEXINGTON      MIX PCPN  36  34  91 NE23      29.82R WCI  25
MCCOOK         CLOUDY    39  37  92 NE20G28   29.79R WCI  29
OGALLALA       LGT SNOW  36  35  94 E15       29.84R WCI  27
$$

NEZ005>010-023>029-035>040-094-282000-
NORTH CENTRAL NEBRASKA

CITY           SKY/WX    TMP DP  RH WIND       PRES   REMARKS
VALENTINE      CLOUDY    44  27  51 NE17      29.93R
AINSWORTH      CLOUDY    40  31  70 NE13G23   29.92R WCI  33
BROKEN BOW     FLURRIES  36  33  89 NE22G28   29.86R WCI  25
O`NEILL        CLOUDY    42  29  61 NE14      29.91S
ORD            LGT SNOW  35  32  88 NE13      29.88R FOG     WCI  26
THEDFORD       FLURRIES  37  35  93 NE15G21   29.90R WCI  28
$$

NEZ041-046>049-061>064-073>077-083>087-282000-
SOUTH CENTRAL NEBRASKA

CITY           SKY/WX    TMP DP  RH WIND       PRES   REMARKS
GRAND ISLAND   LGT RAIN  36  36 100 NE18      29.83R WCI  26
AURORA         CLOUDY    38  37  97 NE20      29.81R FOG     WCI  27
HASTINGS       LGT RAIN  38  36  92 NE21G31   29.80R FOG     WCI  28
HEBRON         CLOUDY    41  41  98 NE20      29.76R FOG
HOLDREGE       CLOUDY    37  35  92 NE22      29.80R WCI  26
KEARNEY *      CLOUDY    36  30  80 NE16      29.82S WCI  26
YORK           LGT RAIN  39  39 100 NE16G23   29.81R WCI  30
$$

NEZ011>018-030>034-042>045-282000-
NORTHEAST NEBRASKA

CITY           SKY/WX    TMP DP  RH WIND       PRES   REMARKS
NORFOLK        LGT RAIN  38  34  85 NE16G23   29.87S WCI  29
ALBION         LGT RAIN  37  34  87 N16G22    29.87R WCI  28
BLAIR          CLOUDY    39  37  93 NE16G23   29.80S FOG     WCI  31
FREMONT        CLOUDY    40  38  93 NE15G21   29.83S WCI  31
TEKAMAH        LGT RAIN  40  36  86 NE22      29.85S WCI  30
WAYNE          CLOUDY    40  35  84 NE14      29.89S WCI  32
$$

NEZ050>053-065>068-078-088>093-282000-
SOUTHEAST NEBRASKA

CITY           SKY/WX    TMP DP  RH WIND       PRES   REMARKS
LINCOLN        LGT RAIN  41  39  93 NE14G24   29.81R FOG
OMAHA EPPLEY   LGT RAIN  41  36  82 NE9       29.82S
BEATRICE       CLOUDY    41  40  95 NE15G23   29.76R FOG
FALLS CITY     CLOUDY    44  43  96 NE13G20   29.73S FOG
NEBRASKA CITY  CLOUDY    39  39 100 NE23      29.76F WCI  29
PLATTSMOUTH    CLOUDY    39  36  87 NE16      29.79F FOG     WCI  31
$$

NEZ044-045-051>053-067-282000-
OMAHA AREA

CITY           SKY/WX    TMP DP  RH WIND       PRES   REMARKS
OMAHA EPPLEY   LGT RAIN  41  36  82 NE9       29.82S
BLAIR          CLOUDY    39  37  93 NE16G23   29.80S FOG     WCI  31
FREMONT        CLOUDY    40  38  93 NE15G21   29.83S WCI  31
MILLARD        DRIZZLE   42  40  91 NE8       29.82R
OFFUTT AFB     CLOUDY    40  37  89 NE16G23   29.80R WCI  31
PLATTSMOUTH    CLOUDY    39  36  87 NE16      29.79F FOG     WCI  31
WAHOO          LGT RAIN  39  37  93 NE18      29.81S WCI  30
$$




USA.gov is the U.S. government's official web portal to all federal, state and local government web resources and services.